User: anonymous   Login
Location: A�t �Alizem
(31.2076°N, 8.7872°W)
Time: 09:33:25
(UTC+00:00)
Language:

Cosmos 1821 Rocket - Orbit

View from above orbital plane
View from above orbital plane
View from above satellite
View from above satellite

Ground track
Ground track

The orbit data is extracted from the following two-line orbital elements,

1 17526U 87017B   21063.65121727  .00000098  00000-0  83323-4 0  9997
2 17526  82.8989 106.4711 0041648 123.7200 236.7937 13.76890321692751
Epoch (UTC): 04 March 2021 15:37:45
Eccentricity: 0.0041648
inclination: 82.8989°
perigee height: 944 km
apogee height: 1005 km
right ascension of ascending node: 106.4711°
argument of perigee: 123.7200°
revolutions per day: 13.76890321
mean anomaly at epoch: 236.7937°
orbit number at epoch: 69275

The dashed part of the orbit path shows where the satellite is in the earth's shadow,  

DLR